Regional Weather Roundup
Issued by NWS

Home | Current Version | Previous Version | Text Only | Print | Product List | Glossary Off
Versions: 1 2 3 4 5 6 7 8 9 10 11 12 13 14 15 16 17 18 19 20 21 22 23 24 25 26 27 28 29 30 31 32 33 34 35 36 37 38 39 40 41 42 43 44 45 46 47 48 49 50

000
ASUS43 KDTX 300401
RWRMI
MICHIGAN HOURLY REGIONAL WEATHER ROUNDUP
NATIONAL WEATHER SERVICE DETROIT/PONTIAC MI
1200 AM EDT SAT MAY 30 2015

NOTE: "FAIR" INDICATES FEW OR NO CLOUDS BELOW 12,000 FEET WITH NO
SIGNIFICANT WEATHER AND/OR OBSTRUCTION TO VISIBILITY.

MIZ047>049-052>055-059>063-066>070-074>076-081>083-300500-
SOUTHEAST LOWER MICHIGAN

CITY           SKY/WX    TMP DP  RH WIND       PRES   REMARKS
ADRIAN         PTCLDY    74  64  71 SW12      29.99F
ALMA           RAIN      69  67  95 S12       29.94R
ANN ARBOR      CLOUDY    75  65  70 S9        29.98F
BAD AXE        CLOUDY    67  64  89 S7        29.94F
CARO           MOCLDY    65  64  96 S5        29.93F
DETROIT CITY   PTCLDY    71  64  78 S7        29.98F
DETROIT        MOCLDY    73  66  78 S8        29.99F
FLINT          PTCLDY    72  66  81 S8        29.95F
GROSSE ILE     MOCLDY    66  63  88 S6        29.98F
HILLSDALE      PTCLDY    76  63  64 S9        30.00S
HOWELL         PTCLDY    73  65  78 S7        29.97S

CITY           SKY/WX    TMP DP  RH WIND       PRES   REMARKS
JACKSON        PTCLDY    75  64  68 S10       29.97S
LAMBERTVILLE   PTCLDY    75  63  64 S8        30.00F
LANSING        MOCLDY    72  65  78 S8        29.94F
LAPEER         FAIR      70  64  82 S7        29.97F
MASON          PTCLDY    72  63  71 S7        29.95F
MONROE         PTCLDY    75  64  69 S7        29.98F
MT. CLEMENS    PTCLDY    66  64  94 S7        29.96F
PONTIAC        PTCLDY    72  65  78 S6        29.97F
PORT HOPE        N/A     69  65  86 S8        29.91F
PORT HURON     MOCLDY    68  64  88 S7        29.98F
TRI CITIES     TSTM      71  66  84 S5        29.92F
MIDLAND        CLOUDY    70  68  93 S6        29.90S
TROY           MOCLDY    76  66  72 S9        30.00F
SAGINAW HB     LGT RAIN  68  68 100 S9        29.91F
$$
MIZ043>046-050>051-056>058-064>065-071>073-077>080-300500-
SOUTHWEST LOWER MICHIGAN

CITY           SKY/WX    TMP DP  RH WIND       PRES   REMARKS
BATTLE CREEK   CLOUDY    72  66  81 W13G22    29.97R
BENTON HARBOR  CLOUDY    68  66  93 S6        29.94F
BIG RAPIDS     CLOUDY    68  65  90 SE7       29.89F
COLDWATER      PTCLDY    75  62  62 S9        29.98S
FREMONT        FAIR      69  66  91 SW6       29.90S
HOLLAND        MOCLDY    71  64  78 SW12      29.94R
GRAND RAPIDS   MOCLDY    70  66  87 SW12      29.93S
IONIA          LGT RAIN  69  67  94 S9        29.92F
KALAMAZOO      HVY RAIN  70  66  87 SW15G22   29.98R FOG
LUDINGTON      MOCLDY    64  61  90 SW9       29.88F
MARSHALL       PTCLDY    76  64  67 S6        29.96S
MOUNT PLEASANT CLOUDY    69  66  91 S3        29.91F
MUSKEGON       PTCLDY    65  60  84 S3        29.91S
SOUTH HAVEN    MOCLDY    69  65  88 S5        29.94S
$$
MIZ016>042-300500-
NORTHERN LOWER MICHIGAN

CITY           SKY/WX    TMP DP  RH WIND       PRES   REMARKS
ALPENA         CLOUDY    64  63  96 CALM      29.87F FOG
BEAVER ISLAND  FOG       55  54  97 W8        29.88S VSB 1
BELLAIRE       HVY RAIN  67  66  94 S3        29.86F
CADILLAC       CLOUDY    67  65  95 S3        29.89F
CHARLEVOIX     LGT RAIN  55  54  99 W3        29.90F
FRANKFORT      CLOUDY    69  62  79 SW6       29.87S
GAYLORD        LGT RAIN  66  66 100 SW7       29.88F
GRAYLING       CLOUDY    65  64  97 CALM      29.89F FOG
HARBOR SPRINGS HVY RAIN  55  55  99 NW5       29.87F VSB 3/4
HOUGHTON LAKE  LGT RAIN  67  65  93 S9        29.90F
MANISTEE       CLOUDY    66  63  88 SW5       29.88F
OSCODA         CLOUDY    67  66  94 S8        29.88F
PELLSTON       HVY RAIN  63  61  93 NW3       29.88S FOG
ROGERS CITY    RAIN      66  64  94 S8        29.87F
TRAVERSE CITY  CLOUDY    69  67  93 CALM      29.85F
$$
MIZ007>008-015-300500-
EASTERN UPPER MICHIGAN

CITY           SKY/WX    TMP DP  RH WIND       PRES   REMARKS
KINROSS        CLOUDY    63  61  94 NW5       29.85F
MACKINAC ISLAN FOG       56  56 100 SW7       29.86F VSB 1/4
NEWBERRY       CLOUDY    60  59  97 NW9       29.87S
S. S. MARIE    CLOUDY    61  59  93 CALM      29.85F FOG
$$
MIZ004>006-011>014-085-300500-
CENTRAL UPPER MICHIGAN

CITY           SKY/WX    TMP DP  RH WIND       PRES   REMARKS
MANISTIQUE     LGT RAIN  58  56  94 NW9       29.88S
ESCANABA       CLOUDY    57  54  88 N10G18    29.89F
MENOMINEE      CLOUDY    64  61  88 N7        29.89R
SAWYER-GWINN   RAIN      52  50  93 N13       29.95F
$$
MIZ001>003-009>011-084-300500-
WESTERN UPPER MICHIGAN

CITY           SKY/WX    TMP DP  RH WIND       PRES   REMARKS
IRON MOUNTAIN  LGT RAIN  60  57  89 N18       29.92R
HOUGHTON       CLOUDY    52  46  80 N9        29.97R
COPPER HARBOR    N/A     49  44  83 N9        29.97R
IRONWOOD       CLOUDY    52  48  87 NW6       30.01R
$$

ABBREVIATIONS USED IN REMARKS
   TC - TEMPERATURE IN CELSIUS
  WCI - WIND CHILL INDEX
   HX - HEAT INDEX
  VSB - VISIBILITY




USA.gov is the U.S. government's official web portal to all federal, state and local government web resources and services.